Location: Arrodets-la-Barthe
(43.0306°N, 0.2829°E)
Time: 05:45:56
(UTC+00:00)

Cosmos 2278 - Pass Details

Date: 31 May 2022
Orbit: 838 x 854 km, 71.1° (Epoch: 03 July)

Event Time Altitude Azimuth Distance (km) Brightness Sun altitude
Rises 03:43:13 0° 348° (NNW) 3,426 7.3 -6.8°
Reaches altitude 10° 03:47:43 10° 21° (NNE) 2,489 7.2 -6.1°
Maximum altitude 03:49:36 12° 40° (NE) 2,378 7.6 -5.9°
Drops below altitude 10° 03:51:29 10° 60° (ENE) 2,488 8.0 -5.6°
Sets 03:55:57 0° 92° (E) 3,420 7.8 -4.9°
